42.2°F
Current conditions from King Hill
Updated every 5 minutes
 
  Sunday April 19, 2015

Station Historical Data
 
Daily Summary for April 19, 2015 Units:  English    Metric   Both
« Previous Day
Next Day »
Daily Weekly Monthly Yearly Custom
  Current: High: Low: Average:
Temperature: 42.2 °F 54.5 °F 35.1 °F 43.8 °F
Dew Point: 30.5 °F 32.1 °F 28.2 °F 30.6 °F
Humidity: 63% 84% 39% 62%
Wind Speed: 0.0mph 9.0mph 0.0mph 2.2mph
Wind Gust: 0.0mph 15.0mph - -
WindCalm - - SSW
Pressure: 30.14 in 30.28 in 30.13 in -
Precipitation: 0.00 in      
Historical Graphs
 
 
Tabular Data for April 19, 2015
Time Temperature Dew Point Pressure Wind Wind Speed Wind Gust Humidity Daily Rainfall
00:00 38.7 °F 31.8 °F 30.14 in Calm   6.0 mph 76% 0.00 in
00:05 38.5 °F 31.6 °F 30.14 in NNW 2.0 mph 7.0 mph 76% 0.00 in
00:10 38.6 °F 31.7 °F 30.14 in NNW 4.0 mph 15.0 mph 76% 0.00 in
00:15 38.6 °F 31.7 °F 30.14 in Calm   15.0 mph 76% 0.00 in
00:20 38.4 °F 31.5 °F 30.14 in Calm   7.0 mph 76% 0.00 in
00:25 38.3 °F 31.7 °F 30.14 in Calm   7.0 mph 77% 0.00 in
00:30 38.2 °F 31.3 °F 30.14 in Calm   4.0 mph 76% 0.00 in
00:35 38.2 °F 31.3 °F 30.14 in Calm   7.0 mph 76% 0.00 in
00:40 38.2 °F 31.3 °F 30.15 in NNW 2.0 mph 10.0 mph 76% 0.00 in
00:45 38.5 °F 31.3 °F 30.15 in North 2.0 mph 12.0 mph 75% 0.00 in
00:50 38.6 °F 31.4 °F 30.15 in NNW 1.0 mph 12.0 mph 75% 0.00 in
00:55 38.7 °F 31.5 °F 30.15 in Calm   14.0 mph 75% 0.00 in
01:00 38.8 °F 31.2 °F 30.15 in NNW 3.0 mph 14.0 mph 74% 0.00 in
01:05 38.8 °F 31.2 °F 30.15 in NNW 1.0 mph 13.0 mph 74% 0.00 in
01:15 38.8 °F 31.2 °F 30.15 in North 1.0 mph 13.0 mph 74% 0.00 in
01:20 38.8 °F 31.6 °F 30.15 in Calm   12.0 mph 75% 0.00 in
01:25 38.8 °F 31.6 °F 30.14 in Calm   12.0 mph 75% 0.00 in
01:30 38.6 °F 31.4 °F 30.14 in North 1.0 mph 8.0 mph 75% 0.00 in
01:35 38.6 °F 31.4 °F 30.15 in Calm   8.0 mph 75% 0.00 in
01:40 38.4 °F 31.2 °F 30.14 in Calm   6.0 mph 75% 0.00 in
01:45 38.2 °F 31.0 °F 30.14 in NW 1.0 mph 10.0 mph 75% 0.00 in
01:50 38.2 °F 31.3 °F 30.15 in NW 2.0 mph 14.0 mph 76% 0.00 in
01:55 38.3 °F 31.1 °F 30.15 in Calm   14.0 mph 75% 0.00 in
02:00 38.4 °F 31.2 °F 30.15 in NNW 2.0 mph 11.0 mph 75% 0.00 in
02:05 38.4 °F 31.2 °F 30.15 in NNW 2.0 mph 13.0 mph 75% 0.00 in
02:10 38.4 °F 31.5 °F 30.15 in Calm   13.0 mph 76% 0.00 in
02:15 38.4 °F 31.5 °F 30.15 in Calm   7.0 mph 76% 0.00 in
02:20 38.2 °F 31.3 °F 30.15 in NNW 2.0 mph 7.0 mph 76% 0.00 in
02:25 38.2 °F 31.6 °F 30.15 in Calm   8.0 mph 77% 0.00 in
02:30 38.1 °F 31.5 °F 30.15 in North 1.0 mph 8.0 mph 77% 0.00 in
02:35 38.0 °F 31.8 °F 30.15 in Calm   8.0 mph 78% 0.00 in
02:40 37.8 °F 31.2 °F 30.16 in Calm   8.0 mph 77% 0.00 in
02:45 37.8 °F 31.6 °F 30.16 in Calm   7.0 mph 78% 0.00 in
02:49 37.7 °F 31.8 °F 30.17 in NNW 1.0 mph 11.0 mph 79% 0.00 in
02:55 37.6 °F 31.4 °F 30.17 in Calm   11.0 mph 78% 0.00 in
03:09 37.4 °F 31.8 °F 30.17 in Calm   6.0 mph 80% 0.00 in
03:15 37.3 °F 31.7 °F 30.17 in Calm   6.0 mph 80% 0.00 in
03:20 37.2 °F 31.6 °F 30.18 in NNW 2.0 mph 12.0 mph 80% 0.00 in
03:25 37.1 °F 31.5 °F 30.18 in NW 1.0 mph 12.0 mph 80% 0.00 in
03:30 37.0 °F 31.7 °F 30.18 in NNW 2.0 mph 10.0 mph 81% 0.00 in
03:36 36.8 °F 31.2 °F 30.18 in North 1.0 mph 13.0 mph 80% 0.00 in
03:41 36.7 °F 31.4 °F 30.18 in Calm   13.0 mph 81% 0.00 in
03:46 36.6 °F 31.6 °F 30.18 in Calm   9.0 mph 82% 0.00 in
03:51 36.4 °F 31.4 °F 30.18 in NE 1.0 mph 9.0 mph 82% 0.00 in
03:56 36.3 °F 31.3 °F 30.18 in Calm   9.0 mph 82% 0.00 in
04:01 36.2 °F 31.5 °F 30.19 in NNW 1.0 mph 9.0 mph 83% 0.00 in
04:06 36.1 °F 31.4 °F 30.19 in North 1.0 mph 8.0 mph 83% 0.00 in
04:11 36.1 °F 31.4 °F 30.19 in North 2.0 mph 11.0 mph 83% 0.00 in
04:16 36.0 °F 31.3 °F 30.19 in NNE 2.0 mph 11.0 mph 83% 0.00 in
04:21 35.9 °F 31.5 °F 30.19 in Calm   11.0 mph 84% 0.00 in
04:26 35.9 °F 31.2 °F 30.19 in NNE 1.0 mph 9.0 mph 83% 0.00 in
04:31 35.8 °F 31.4 °F 30.19 in Calm   9.0 mph 84% 0.00 in
04:36 35.7 °F 31.3 °F 30.19 in Calm   10.0 mph 84% 0.00 in
04:41 35.7 °F 31.3 °F 30.20 in NNE 2.0 mph 10.0 mph 84% 0.00 in
04:46 35.7 °F 31.3 °F 30.20 in Calm   9.0 mph 84% 0.00 in
04:51 35.7 °F 31.3 °F 30.20 in Calm   6.0 mph 84% 0.00 in
04:56 35.7 °F 31.3 °F 30.20 in North 3.0 mph 13.0 mph 84% 0.00 in
05:01 35.7 °F 31.3 °F 30.20 in Calm   13.0 mph 84% 0.00 in
05:06 35.6 °F 31.2 °F 30.21 in NNE 3.0 mph 10.0 mph 84% 0.00 in
05:11 35.6 °F 31.2 °F 30.20 in Calm   10.0 mph 84% 0.00 in
05:16 35.5 °F 31.1 °F 30.20 in Calm   5.0 mph 84% 0.00 in
05:21 35.5 °F 31.1 °F 30.20 in Calm   5.0 mph 84% 0.00 in
05:26 35.4 °F 31.1 °F 30.20 in Calm   1.0 mph 84% 0.00 in
05:31 35.3 °F 31.0 °F 30.20 in NNE 1.0 mph 7.0 mph 84% 0.00 in
05:36 35.3 °F 31.0 °F 30.21 in Calm   7.0 mph 84% 0.00 in
05:41 35.2 °F 30.9 °F 30.21 in Calm     84% 0.00 in
05:46 35.2 °F 30.9 °F 30.21 in Calm     84% 0.00 in
05:51 35.1 °F 30.8 °F 30.22 in Calm     84% 0.00 in
05:56 35.2 °F 30.9 °F 30.22 in North 2.0 mph 12.0 mph 84% 0.00 in
06:01 35.2 °F 30.6 °F 30.22 in NNE 2.0 mph 12.0 mph 83% 0.00 in
06:06 35.3 °F 31.0 °F 30.22 in Calm   11.0 mph 84% 0.00 in
06:11 35.2 °F 30.6 °F 30.22 in NNE 1.0 mph 8.0 mph 83% 0.00 in
06:21 35.1 °F 30.5 °F 30.23 in NE 4.0 mph 10.0 mph 83% 0.00 in
06:26 35.2 °F 30.6 °F 30.23 in NNE 1.0 mph 10.0 mph 83% 0.00 in
06:31 35.2 °F 30.6 °F 30.24 in North 3.0 mph 9.0 mph 83% 0.00 in
06:36 35.3 °F 30.7 °F 30.24 in Calm   9.0 mph 83% 0.00 in
06:41 35.3 °F 30.7 °F 30.24 in Calm   7.0 mph 83% 0.00 in
06:46 35.4 °F 30.8 °F 30.24 in Calm   7.0 mph 83% 0.00 in
06:51 35.4 °F 30.8 °F 30.24 in Calm   5.0 mph 83% 0.00 in
06:56 35.5 °F 30.9 °F 30.25 in Calm     83% 0.00 in
07:01 35.5 °F 30.9 °F 30.25 in Calm     83% 0.00 in
07:06 35.5 °F 30.9 °F 30.24 in NNE 2.0 mph 7.0 mph 83% 0.00 in
07:11 35.5 °F 30.9 °F 30.24 in Calm   7.0 mph 83% 0.00 in
07:16 35.5 °F 30.9 °F 30.24 in Calm   5.0 mph 83% 0.00 in
07:21 35.7 °F 31.0 °F 30.25 in NNE 3.0 mph 7.0 mph 83% 0.00 in
07:26 36.2 °F 31.5 °F 30.25 in Calm   7.0 mph 83% 0.00 in
07:31 37.0 °F 31.7 °F 30.25 in North 2.0 mph 8.0 mph 81% 0.00 in
07:36 37.2 °F 31.9 °F 30.25 in Calm   8.0 mph 81% 0.00 in
07:41 37.2 °F 30.3 °F 30.25 in NE 2.0 mph 9.0 mph 76% 0.00 in
07:46 37.5 °F 30.6 °F 30.25 in East 2.0 mph 9.0 mph 76% 0.00 in
07:51 38.2 °F 30.0 °F 30.25 in NE 3.0 mph 8.0 mph 72% 0.00 in
07:56 38.5 °F 28.9 °F 30.25 in North 4.0 mph 13.0 mph 68% 0.00 in
08:01 38.6 °F 28.2 °F 30.25 in NE 2.0 mph 15.0 mph 66% 0.00 in
08:06 39.5 °F 31.2 °F 30.25 in Calm   15.0 mph 72% 0.00 in
08:11 40.0 °F 29.9 °F 30.26 in Calm   10.0 mph 67% 0.00 in
08:16 40.2 °F 29.4 °F 30.25 in Calm   10.0 mph 65% 0.00 in
08:21 40.6 °F 30.9 °F 30.25 in NNE 3.0 mph 10.0 mph 68% 0.00 in
08:26 40.7 °F 29.1 °F 30.26 in East 1.0 mph 10.0 mph 63% 0.00 in
08:31 40.8 °F 29.6 °F 30.26 in NE 5.0 mph 14.0 mph 64% 0.00 in
08:36 41.2 °F 31.1 °F 30.26 in NNE 2.0 mph 14.0 mph 67% 0.00 in
08:41 42.0 °F 30.7 °F 30.26 in North 1.0 mph 8.0 mph 64% 0.00 in
08:46 42.3 °F 31.0 °F 30.26 in Calm   5.0 mph 64% 0.00 in
08:51 41.9 °F 28.6 °F 30.26 in East 3.0 mph 11.0 mph 59% 0.00 in
08:56 41.7 °F 29.2 °F 30.26 in Calm   11.0 mph 61% 0.00 in
09:01 41.8 °F 29.7 °F 30.25 in North 1.0 mph 5.0 mph 62% 0.00 in
09:06 41.4 °F 29.0 °F 30.26 in NNE 3.0 mph 8.0 mph 61% 0.00 in
09:16 42.1 °F 29.6 °F 30.25 in NNE 3.0 mph 8.0 mph 61% 0.00 in
09:21 42.0 °F 29.5 °F 30.25 in North 2.0 mph 8.0 mph 61% 0.00 in
09:26 41.7 °F 29.6 °F 30.25 in Calm   7.0 mph 62% 0.00 in
09:31 42.3 °F 29.8 °F 30.25 in Calm   6.0 mph 61% 0.00 in
09:36 42.3 °F 29.0 °F 30.25 in Calm   5.0 mph 59% 0.00 in
09:41 42.5 °F 28.8 °F 30.25 in Calm   7.0 mph 58% 0.00 in
09:46 42.5 °F 28.8 °F 30.26 in ENE 2.0 mph 8.0 mph 58% 0.00 in
09:51 42.1 °F 28.4 °F 30.25 in Calm   8.0 mph 58% 0.00 in
09:56 42.7 °F 29.4 °F 30.26 in NW 5.0 mph 10.0 mph 59% 0.00 in
10:01 43.3 °F 29.1 °F 30.26 in NNW 3.0 mph 10.0 mph 57% 0.00 in
10:06 43.7 °F 29.5 °F 30.26 in Calm   7.0 mph 57% 0.00 in
10:11 43.6 °F 28.5 °F 30.26 in ENE 1.0 mph 7.0 mph 55% 0.00 in
10:16 43.6 °F 29.4 °F 30.26 in Calm   7.0 mph 57% 0.00 in
10:21 43.8 °F 28.7 °F 30.27 in NW 4.0 mph 8.0 mph 55% 0.00 in
10:26 44.2 °F 29.1 °F 30.26 in WNW 2.0 mph 8.0 mph 55% 0.00 in
10:31 43.5 °F 28.4 °F 30.27 in West 1.0 mph 7.0 mph 55% 0.00 in
10:36 43.7 °F 29.9 °F 30.27 in North 1.0 mph 12.0 mph 58% 0.00 in
10:41 44.7 °F 30.4 °F 30.28 in NNE 2.0 mph 12.0 mph 57% 0.00 in
10:46 44.9 °F 29.3 °F 30.28 in NW 1.0 mph 6.0 mph 54% 0.00 in
10:51 44.2 °F 29.1 °F 30.28 in Calm   6.0 mph 55% 0.00 in
10:56 44.1 °F 28.5 °F 30.27 in NW 1.0 mph 7.0 mph 54% 0.00 in
11:01 44.7 °F 29.1 °F 30.26 in NNE 2.0 mph 8.0 mph 54% 0.00 in
11:06 45.6 °F 29.5 °F 30.26 in Calm   9.0 mph 53% 0.00 in
11:11 45.8 °F 28.7 °F 30.26 in Calm   9.0 mph 51% 0.00 in
11:16 46.5 °F 29.8 °F 30.27 in NW 2.0 mph 7.0 mph 52% 0.00 in
11:21 46.7 °F 30.0 °F 30.26 in North 1.0 mph 7.0 mph 52% 0.00 in
11:26 47.0 °F 28.8 °F 30.26 in Calm   7.0 mph 49% 0.00 in
11:31 46.7 °F 29.0 °F 30.26 in NNE 1.0 mph 7.0 mph 50% 0.00 in
11:36 45.9 °F 28.3 °F 30.26 in Calm   7.0 mph 50% 0.00 in
11:41 46.2 °F 30.0 °F 30.26 in NNE 3.0 mph 11.0 mph 53% 0.00 in
11:46 46.8 °F 29.6 °F 30.26 in Calm   11.0 mph 51% 0.00 in
11:51 46.7 °F 30.9 °F 30.26 in Calm   7.0 mph 54% 0.00 in
11:56 47.9 °F 31.6 °F 30.26 in WNW 1.0 mph 6.0 mph 53% 0.00 in
12:01 47.9 °F 31.6 °F 30.26 in Calm   6.0 mph 53% 0.00 in
12:06 46.4 °F 29.7 °F 30.26 in Calm   9.0 mph 52% 0.00 in
12:11 46.7 °F 30.9 °F 30.25 in WNW 5.0 mph 9.0 mph 54% 0.00 in
12:16 46.5 °F 31.2 °F 30.26 in WNW 9.0 mph 15.0 mph 55% 0.00 in
12:21 46.5 °F 29.8 °F 30.26 in West 2.0 mph 15.0 mph 52% 0.00 in
12:26 46.4 °F 31.1 °F 30.26 in West 1.0 mph 12.0 mph 55% 0.00 in
12:31 47.1 °F 29.9 °F 30.25 in North 1.0 mph 8.0 mph 51% 0.00 in
12:36 48.1 °F 31.3 °F 30.25 in ENE 1.0 mph 7.0 mph 52% 0.00 in
12:41 48.2 °F 30.9 °F 30.25 in Calm   7.0 mph 51% 0.00 in
12:46 49.4 °F 30.5 °F 30.25 in Calm   5.0 mph 48% 0.00 in
12:51 48.9 °F 29.6 °F 30.25 in WNW 2.0 mph 6.0 mph 47% 0.00 in
12:56 48.0 °F 30.3 °F 30.25 in NW 1.0 mph 13.0 mph 50% 0.00 in
13:01 48.4 °F 30.6 °F 30.25 in NW 3.0 mph 13.0 mph 50% 0.00 in
13:06 48.3 °F 30.5 °F 30.25 in WNW 4.0 mph 10.0 mph 50% 0.00 in
13:11 48.7 °F 30.9 °F 30.24 in WNW 5.0 mph 9.0 mph 50% 0.00 in
13:16 48.9 °F 32.1 °F 30.24 in NW 2.0 mph 12.0 mph 52% 0.00 in
13:21 49.7 °F 31.3 °F 30.24 in NNW 4.0 mph 12.0 mph 49% 0.00 in
13:26 49.5 °F 32.1 °F 30.24 in Calm   10.0 mph 51% 0.00 in
13:31 50.0 °F 32.1 °F 30.23 in NW 3.0 mph 9.0 mph 50% 0.00 in
13:36 49.5 °F 31.6 °F 30.23 in WNW 3.0 mph 10.0 mph 50% 0.00 in
13:41 49.6 °F 31.7 °F 30.24 in WNW 6.0 mph 14.0 mph 50% 0.00 in
13:46 49.3 °F 31.5 °F 30.23 in NNW 3.0 mph 14.0 mph 50% 0.00 in
13:51 50.3 °F 31.9 °F 30.23 in WNW 2.0 mph 13.0 mph 49% 0.00 in
13:56 50.1 °F 30.7 °F 30.23 in WNW 4.0 mph 10.0 mph 47% 0.00 in
14:01 50.2 °F 31.3 °F 30.23 in NNW 2.0 mph 8.0 mph 48% 0.00 in
14:11 50.1 °F 30.7 °F 30.22 in NW 1.0 mph 13.0 mph 47% 0.00 in
14:16 50.8 °F 30.8 °F 30.22 in Calm   13.0 mph 46% 0.00 in
14:21 50.8 °F 30.8 °F 30.23 in NNW 5.0 mph 9.0 mph 46% 0.00 in
14:26 49.8 °F 31.4 °F 30.23 in West 6.0 mph 15.0 mph 49% 0.00 in
14:31 50.0 °F 30.0 °F 30.22 in West 3.0 mph 15.0 mph 46% 0.00 in
14:36 49.5 °F 30.1 °F 30.22 in WNW 3.0 mph 14.0 mph 47% 0.00 in
14:41 50.4 °F 29.9 °F 30.22 in Calm   14.0 mph 45% 0.00 in
14:46 50.6 °F 31.6 °F 30.22 in WNW 4.0 mph 10.0 mph 48% 0.00 in
14:51 50.5 °F 31.0 °F 30.21 in West 2.0 mph 10.0 mph 47% 0.00 in
14:56 51.4 °F 30.2 °F 30.20 in NW 1.0 mph 10.0 mph 44% 0.00 in
15:01 51.0 °F 31.0 °F 30.20 in WNW 3.0 mph 7.0 mph 46% 0.00 in
15:06 51.1 °F 30.5 °F 30.20 in WNW 5.0 mph 13.0 mph 45% 0.00 in
15:11 51.8 °F 31.1 °F 30.20 in WNW 1.0 mph 13.0 mph 45% 0.00 in
15:16 52.5 °F 31.2 °F 30.20 in WNW 1.0 mph 6.0 mph 44% 0.00 in
15:21 51.7 °F 31.0 °F 30.20 in WNW 2.0 mph 9.0 mph 45% 0.00 in
15:26 51.5 °F 30.9 °F 30.19 in NW 1.0 mph 9.0 mph 45% 0.00 in
15:31 52.4 °F 31.1 °F 30.19 in Calm   7.0 mph 44% 0.00 in
15:36 52.8 °F 30.3 °F 30.19 in Calm   4.0 mph 42% 0.00 in
15:41 53.0 °F 29.9 °F 30.18 in Calm   5.0 mph 41% 0.00 in
15:46 52.3 °F 30.5 °F 30.18 in Calm   5.0 mph 43% 0.00 in
15:51 53.0 °F 31.7 °F 30.18 in Calm     44% 0.00 in
15:56 53.6 °F 31.1 °F 30.18 in NW 1.0 mph 5.0 mph 42% 0.00 in
16:01 53.3 °F 30.8 °F 30.18 in Calm   5.0 mph 42% 0.00 in
16:06 53.3 °F 30.2 °F 30.18 in WNW 1.0 mph 5.0 mph 41% 0.00 in
16:11 53.3 °F 30.8 °F 30.17 in Calm   5.0 mph 42% 0.00 in
16:21 53.1 °F 30.0 °F 30.17 in Calm   5.0 mph 41% 0.00 in
16:26 53.1 °F 30.0 °F 30.16 in Calm   4.0 mph 41% 0.00 in
16:31 53.5 °F 30.4 °F 30.16 in Calm   6.0 mph 41% 0.00 in
16:36 53.2 °F 30.1 °F 30.16 in Calm   6.0 mph 41% 0.00 in
16:41 53.8 °F 31.8 °F 30.16 in Calm   6.0 mph 43% 0.00 in
16:46 54.2 °F 31.0 °F 30.15 in Calm   4.0 mph 41% 0.00 in
16:51 54.0 °F 30.8 °F 30.15 in NNE 1.0 mph 6.0 mph 41% 0.00 in
16:56 53.8 °F 30.7 °F 30.15 in Calm   6.0 mph 41% 0.00 in
17:01 54.0 °F 30.8 °F 30.15 in Calm   6.0 mph 41% 0.00 in
17:06 54.0 °F 30.2 °F 30.14 in Calm   4.0 mph 40% 0.00 in
17:11 54.3 °F 30.5 °F 30.14 in NW 1.0 mph 5.0 mph 40% 0.00 in
17:16 54.0 °F 30.8 °F 30.14 in Calm   5.0 mph 41% 0.00 in
17:21 54.2 °F 31.0 °F 30.14 in NNW 1.0 mph 5.0 mph 41% 0.00 in
17:26 54.0 °F 30.2 °F 30.14 in NW 2.0 mph 5.0 mph 40% 0.00 in
17:36 53.8 °F 29.4 °F 30.14 in Calm   6.0 mph 39% 0.00 in
17:41 54.2 °F 31.0 °F 30.14 in Calm   4.0 mph 41% 0.00 in
17:46 54.5 °F 30.7 °F 30.14 in Calm   1.0 mph 40% 0.00 in
17:51 53.8 °F 30.7 °F 30.14 in NW 1.0 mph 5.0 mph 41% 0.00 in
17:56 53.5 °F 30.4 °F 30.14 in Calm   5.0 mph 41% 0.00 in
18:01 53.7 °F 30.0 °F 30.13 in Calm   5.0 mph 40% 0.00 in
18:06 53.9 °F 30.1 °F 30.13 in North 1.0 mph 7.0 mph 40% 0.00 in
18:11 53.8 °F 30.7 °F 30.14 in Calm   8.0 mph 41% 0.00 in
18:16 54.0 °F 30.2 °F 30.14 in Calm   8.0 mph 40% 0.00 in
18:21 53.3 °F 29.6 °F 30.14 in Calm   6.0 mph 40% 0.00 in
18:26 53.0 °F 29.3 °F 30.14 in Calm   3.0 mph 40% 0.00 in
18:31 52.2 °F 29.2 °F 30.15 in NW 1.0 mph 4.0 mph 41% 0.00 in
18:36 51.3 °F 29.0 °F 30.15 in Calm   4.0 mph 42% 0.00 in
18:41 50.9 °F 30.9 °F 30.15 in Calm     46% 0.00 in
18:46 50.7 °F 29.6 °F 30.15 in Calm     44% 0.00 in
18:51 50.5 °F 30.0 °F 30.15 in Calm     45% 0.00 in
18:56 50.0 °F 30.0 °F 30.15 in Calm     46% 0.00 in
19:01 49.6 °F 30.2 °F 30.15 in Calm     47% 0.00 in
19:06 49.2 °F 29.8 °F 30.15 in Calm     47% 0.00 in
19:11 48.8 °F 30.0 °F 30.15 in Calm     48% 0.00 in
19:16 48.4 °F 29.6 °F 30.14 in Calm     48% 0.00 in
19:21 48.1 °F 30.3 °F 30.14 in Calm     50% 0.00 in
19:26 47.7 °F 31.4 °F 30.14 in Calm     53% 0.00 in
19:31 47.1 °F 30.9 °F 30.15 in Calm     53% 0.00 in
19:36 46.5 °F 30.8 °F 30.15 in Calm     54% 0.00 in
19:41 46.2 °F 30.5 °F 30.15 in Calm     54% 0.00 in
19:46 46.0 °F 31.2 °F 30.15 in Calm     56% 0.00 in
19:51 45.6 °F 31.2 °F 30.15 in Calm     57% 0.00 in
19:56 45.1 °F 30.8 °F 30.15 in Calm     57% 0.00 in
20:01 44.8 °F 30.9 °F 30.15 in Calm     58% 0.00 in
20:06 44.8 °F 30.9 °F 30.15 in Calm     58% 0.00 in
20:11 44.6 °F 30.7 °F 30.14 in Calm     58% 0.00 in
20:16 44.4 °F 30.6 °F 30.14 in Calm   2.0 mph 58% 0.00 in
20:21 44.3 °F 30.9 °F 30.14 in Calm   2.0 mph 59% 0.00 in
20:26 43.8 °F 30.8 °F 30.14 in Calm   2.0 mph 60% 0.00 in
20:31 43.3 °F 31.2 °F 30.14 in Calm     62% 0.00 in
20:36 42.7 °F 31.4 °F 30.14 in Calm     64% 0.00 in
20:41 42.4 °F 30.7 °F 30.14 in Calm     63% 0.00 in
20:46 42.2 °F 30.5 °F 30.14 in Calm     63% 0.00 in
Westford Weather
Compliments of Weather Underground

 
 
Current Radar Loop:

Copyright © WestfordWeather.net 2007-2015. All rights reserved.